Location: Camerata Picena
(43.5667°N, 13.3500°E)
Time: 06:11:53
(UTC+00:00)

Daily predictions for brighter satellites

Satellite Brightness Start Highest point End
(mag) Time Altitude Azimuth Time Altitude Azimuth Time Altitude Azimuth
Cosmos 2278 4.0 18:32:43 10° NNW 18:38:21 56° ENE 18:43:55 10° SE
H-2A R/B 2.5 18:33:22 10° S 18:38:25 65° W 18:43:22 10° NNW
Cosmos 2228 Rocket 3.6 18:34:30 10° NNW 18:38:52 64° W 18:43:12 10° S
ATLAS 5 CENTAUR R/B 3.9 18:34:10 10° NW 18:39:36 37° WSW 18:45:43 10° S
ATLAS 3B R/B 4.2 18:40:40 10° ESE 18:42:12 11° ESE 18:43:44 10° E
Cosmos 389 Rocket 2.7 18:39:08 10° NNW 18:42:36 72° W 18:46:04 10° S
Meteor 1-4 Rocket 3.3 18:40:48 10° N 18:43:55 31° ENE 18:47:01 10° SE
Cosmos 676 Rocket 4.3 18:39:12 10° S 18:44:15 47° ESE 18:49:22 10° NNE
Cosmos 2360 Rocket 4.4 18:43:45 10° NNE 18:45:02 11° NE 18:46:19 10° NE
Cosmos 972 4.5 18:42:14 10° NNW 18:47:16 82° WSW 18:52:08 10° SSE
MOS 1 4.3 18:42:01 10° SSE 18:47:38 73° ENE 18:53:18 10° N
CZ-2C R/B 4.3 18:45:34 10° SSW 18:50:02 39° W 18:54:30 10° NNW
Genesis I 3.2 18:46:38 10° NW 18:50:32 89° NE 18:54:24 10° SSE
Cosmos 1934 Rocket 4.4 18:44:57 10° SSE 18:50:57 46° E 18:56:58 10° NNE
Cosmos 1238 Rocket 4.2 18:51:42 11° ESE 18:52:43 12° E 18:53:56 10° ENE
USA 276 3.8 18:51:31 10° NW 18:54:18 27° N 18:57:05 10° ENE
X-37B 0.8 18:51:47 10° W 18:54:55 67° N 18:58:04 10° E
Cosmos 1980 Rocket 2.3 18:49:36 10° NNW 18:55:17 67° ENE 19:00:52 10° SE
IRIDIUM 104 4.4 18:52:09 10° S 18:57:22 89° E 19:02:37 10° N
Lacrosse 5 2.6 18:53:14 10° NW 18:58:05 42° NNE 19:02:39 11° ESE
CZ-2C R/B 4.1 18:55:07 10° NNE 18:59:26 40° E 19:03:38 10° S
Resurs 01 Rocket 2.5 18:57:22 10° SE 19:01:16 34° ENE 19:05:16 10° N
Cosmos 1833 Rocket 3.7 18:56:58 10° SW 19:02:25 51° WNW 19:07:56 10° NNE
USA 238 DEB 3.6 18:59:14 10° SSW 19:05:46 74° ESE 19:12:38 10° NE
USA 238 3.6 18:59:19 10° SSW 19:05:53 73° ESE 19:12:44 10° NE
SPOT 3 Rocket 3.7 19:01:01 10° SSE 19:06:06 58° ENE 19:11:11 10° N
Cosmos 1697 Rocket 3.4 19:02:06 10° NNW 19:07:34 53° WSW 19:13:00 10° S
Cosmos 1867 4.0 19:02:34 10° SW 19:07:58 69° NW 19:13:26 10° NNE
GP-B 4.1 19:04:19 10° NNE 19:08:10 28° E 19:11:09 14° SE
CENTAUR R/B 2.7 19:04:00 10° S 19:09:28 47° ESE 19:15:54 10° NE
Cosmos 1666 Rocket 3.5 19:05:14 10° S 19:09:32 83° E 19:13:55 10° N
Cosmos 1954 Rocket 4.0 19:07:04 10° SSW 19:12:22 81° ESE 19:17:43 10° NNE
DMSP B5D2-2 4.1 19:10:09 10° NNE 19:15:25 87° WNW 19:20:41 10° SSW
FREGAT/IRIS 4.0 19:13:42 10° SSW 19:16:06 32° W 19:18:31 10° NNW
Cosmos 1821 Rocket 4.4 19:10:53 10° SSW 19:17:01 70° W 19:23:17 10° N
Ariane Rocket 3.8 19:12:07 10° S 19:17:02 51° W 19:21:58 10° NNW
Cosmos 405 Rocket 3.5 19:15:00 15° SSE 19:17:29 30° E 19:20:48 10° NNE
Intercosmos 25 3.8 19:16:25 10° NNW 19:19:54 51° W 19:22:58 10° S
Cosmos 1812 4.4 19:17:57 10° NNW 19:21:26 33° W 19:24:55 10° SSW
Okean 1-7 4.5 19:20:17 10° NNE 19:23:32 21° ENE 19:24:59 18° E
SJ-6B 4.0 19:21:15 10° S 19:25:05 42° W 19:28:51 10° NNW
NOSS 2 (A) 4.2 19:27:04 10° NW 19:29:32 63° SW 19:30:20 34° SSE
Cosmos 1763 Rocket 4.0 19:24:59 10° N 19:30:05 44° ENE 19:33:12 21° SE
Resurs 1-3 3.7 19:25:42 10° S 19:30:05 81° WSW 19:34:30 10° NNW
Cosmos 1437 Rocket 4.0 19:27:46 10° NNE 19:30:55 24° ENE 19:31:55 22° E
OBJECT-B 1.4 19:29:41 11° S 19:32:46 58° W 19:36:02 10° NNW
Cosmos 2084 Rocket 3.3 19:30:30 10° SSW 19:34:38 66° ESE 19:38:52 10° NE
H-2A R/B 3.8 19:32:03 10° NNE 19:35:59 41° E 19:38:17 21° SSE
Cosmos 1633 Rocket 3.6 19:32:04 10° SSW 19:36:26 62° W 19:40:49 10° N
Cosmos 1184 Rocket 3.3 19:34:06 10° SSW 19:37:21 61° WNW 19:40:37 10° N
Landsat 7 4.4 19:36:27 23° ESE 19:38:48 39° ENE 19:43:14 10° N
SPOT 5 4.3 19:38:25 16° E 19:39:37 18° ENE 19:42:32 10° NNE
Cosmos 921 Rocket 2.9 19:38:17 10° NNW 19:42:29 84° WSW 19:45:03 23° SSE
Cosmos 2123 Rocket 4.2 19:37:25 10° N 19:43:39 76° W 19:49:54 10° S
MetOp-B 4.2 19:40:53 22° SSE 19:44:20 62° ENE 19:49:38 10° N
Cosmos 1605 Rocket 3.9 19:45:04 10° S 19:51:11 85° E 19:57:18 10° N
Meteor 1-19 Rocket 4.3 19:46:48 10° N 19:52:10 58° ENE 19:54:58 28° SE
Okean 1 3.3 19:50:41 10° N 19:54:43 65° E 19:56:09 37° SSE
CZ-2C R/B 4.1 19:50:07 10° N 19:54:52 37° WNW 19:59:39 10° SW
NOSS 3-2 (A) 4.2 19:50:34 10° WSW 19:56:09 53° NW 20:02:33 10° NNE
USA 267 3.3 19:51:44 10° ENE 19:58:06 52° SE 20:04:27 10° SSW
Cosmos 2219 Rocket 4.3 19:56:47 10° N 19:59:50 14° NE 20:02:41 10° ENE
Meteor 2-4 Rocket 4.2 19:55:30 10° N 20:00:46 41° ENE 20:02:35 32° ESE
Cosmos 540 Rocket 4.0 19:58:03 10° N 20:03:00 42° ENE 20:04:39 33° ESE
SL-16 R/B 2.2 19:58:16 10° NNW 20:03:57 71° ENE 20:06:28 34° SE
SL-4 R/B 4.0 20:00:59 10° WNW 20:04:14 24° N 20:07:17 10° NE
SL-27 R/B 2.1 20:04:27 58° S 20:05:01 80° ESE 20:08:21 10° NNE
BREEZE-M DEB (TANK) 3.8 20:02:23 10° WNW 20:05:14 41° N 20:12:34 10° ENE
Cosmos 1470 Rocket 4.3 20:01:58 10° SSW 20:06:16 52° W 20:10:34 10° N
NOSS 3-2 (C) 3.7 20:01:01 10° SW 20:06:41 70° NW 20:13:12 10° NNE
Cosmos 2242 Rocket 3.5 20:02:57 10° N 20:07:23 89° W 20:09:08 36° S
Cosmos 2082 Rocket 4.4 20:06:31 10° WSW 20:11:18 27° NW 20:16:07 10° N
Cosmos 1459 Rocket 4.3 20:09:17 33° SE 20:11:36 46° E 20:17:38 10° NNE
BREEZE-M DEB (TANK) 3.6 20:10:43 10° NW 20:12:31 23° N 20:12:31 23° N
ERS-1 Rocket 3.3 20:16:14 41° ESE 20:17:28 50° ENE 20:22:18 10° N
Meteor 1-14 Rocket 4.3 20:13:21 17° S 20:17:58 89° E 20:23:59 10° N
Cosmos 2322 Rocket 2.1 20:15:33 10° NNW 20:21:17 79° ENE 20:23:14 43° SE
Cosmos 1850 Rocket 4.5 20:18:04 10° SSW 20:23:19 62° WNW 20:28:33 10° NNE
Cosmos 1500 3.4 20:25:36 54° NE 20:25:36 54° NE 20:28:47 10° NNE
SPOT 1/Viking Rocket 3.5 20:23:32 42° SSE 20:25:22 88° ENE 20:30:38 10° NNW
Terra 2.4 20:27:56 38° E 20:28:21 39° ENE 20:32:47 10° N
Cosmos 841 Rocket 3.4 20:23:27 10° NNW 20:28:42 73° ENE 20:29:56 52° SE
Cosmos 2360 Rocket 2.5 20:24:54 10° NNW 20:30:27 52° ENE 20:31:48 43° ESE
IGS 5A 3.8 20:29:39 44° SSW 20:30:40 58° W 20:34:47 10° NNW
USA 276 3.0 20:27:45 10° WNW 20:30:10 49° NW 20:30:10 49° NW
X-37B 2.1 20:28:27 10° W 20:30:22 31° W 20:30:22 31° W
ATLAS 3B R/B 2.5 20:25:05 10° SSW 20:31:37 68° ESE 20:38:12 10° NE
Okean 3 4.0 20:28:15 10° N 20:32:07 43° ENE 20:32:07 43° ENE
USA 234 3.9 20:29:00 23° E 20:32:48 48° NNE 20:39:00 10° NW
Cosmos 2237 4.3 20:28:59 10° NNW 20:34:40 62° ENE 20:35:58 48° ESE
Cosmos 1666 4.4 20:37:36 22° NE 20:37:36 22° NE 20:39:19 10° NNE
Resurs 01 Rocket 3.6 20:34:56 13° SW 20:37:48 24° W 20:41:25 10° NW
Iridium 4 Rocket 3.5 20:38:44 46° ENE 20:38:44 46° ENE 20:42:08 10° NNE
Cosmos 1980 Rocket 4.4 20:34:57 10° WNW 20:38:39 18° W 20:42:19 10° SW
Cosmos 44 3.4 20:34:43 10° NW 20:39:42 72° WSW 20:40:36 58° S
CARTOSAT-1 3.4 20:40:31 81° SE 20:40:41 84° ENE 20:45:02 10° NNW
Lacrosse 5 2.5 20:36:18 10° WNW 20:41:03 41° SW 20:41:50 39° SSW
Cosmos 2061 Rocket 4.0 20:50:45 55° SE 20:51:47 63° E 20:57:53 10° NNE
Spot 2 Rocket 4.4 20:51:17 31° SW 20:53:03 42° W 20:57:54 10° NNW
Cosmos 1814 Rocket 3.9 20:51:08 10° NNW 20:56:23 80° WSW 20:56:57 70° S
Cosmos 1802 Rocket 3.9 20:54:58 50° S 20:56:46 83° E 21:03:07 10° N
COSMOS 2428 3.9 20:51:48 10° N 20:56:50 30° NE 20:57:48 29° ENE
Cosmos 1869 Rocket 4.1 20:57:43 48° WSW 20:58:28 54° W 21:02:52 10° N
CENTAUR R/B 3.9 20:54:34 10° WSW 21:00:15 39° NW 21:06:57 10° NNE
Cosmos 2237 Rocket 4.3 20:57:40 10° N 21:00:50 15° NE 21:02:46 13° ENE
Okean 1-7 4.2 20:57:18 10° NNW 21:01:11 34° W 21:01:51 32° WSW
Cosmos 44 Rocket 4.5 20:59:16 10° NNW 21:03:47 32° NE 21:04:15 32° ENE
Cosmos 1816 Rocket 4.4 21:02:13 10° N 21:08:26 67° E 21:09:03 63° ESE
ATLAS 5 CENTAUR R/B 2.7 21:11:48 10° NNW 21:14:55 62° NE 21:14:58 62° NE
Cosmos 2333 Rocket 2.6 21:09:24 10° NNW 21:15:00 49° ENE 21:15:19 48° ENE
SPOT 5 3.4 21:17:39 46° W 21:17:39 46° W 21:21:36 10° NNW
Cosmos 1486 Rocket 4.4 21:22:07 52° NE 21:22:07 52° NE 21:26:09 10° NNE
Cosmos 1066 Rocket 4.1 21:16:02 10° N 21:21:30 71° ENE 21:21:30 71° ENE
BREEZE-M DEB (TANK) 4.5 21:10:50 10° W 21:27:04 76° N 21:28:57 45° ENE
Cosmos 1733 Rocket 4.0 21:29:41 46° N 21:29:41 46° N 21:32:52 10° N
Meteor 1-11 Rocket 4.0 21:31:46 57° WSW 21:32:33 63° WNW 21:38:19 10° N
Cosmos 968 Rocket 4.0 21:37:25 50° NNE 21:37:25 50° NNE 21:41:15 10° NNE
Lacrosse 4 Rocket 2.8 21:37:37 38° NNW 21:37:37 38° NNW 21:40:45 10° NNE
Tsikada Rocket 3.9 21:32:06 10° N 21:38:27 84° W 21:38:46 80° SSW
USA 267 3.9 21:34:47 10° NE 21:41:08 55° NNW 21:47:27 10° WSW
SL-4 R/B 4.1 21:41:10 10° NW 21:42:58 22° NNW 21:42:58 22° NNW
Cosmos 2219 Rocket 2.3 21:39:07 10° NNW 21:44:23 69° NNE 21:44:23 69° NNE
SL-16 R/B 4.2 21:43:51 10° WNW 21:47:23 17° W 21:48:20 16° WSW
Cosmos 2322 4.1 21:52:33 10° NNW 21:57:25 57° WNW 21:57:25 57° WNW
Cosmos 2322 Rocket 4.3 22:01:26 10° WNW 22:04:34 15° W 22:05:03 15° WSW
Terra 3.7 22:06:49 23° W 22:06:49 23° W 22:10:01 10° NW
Cosmos 2360 Rocket 3.8 22:09:38 10° NW 22:13:33 24° W 22:13:33 24° W
USA 234 3.4 22:16:20 60° WSW 22:16:20 60° WSW 22:22:10 10° NW
SL-16 R/B 4.1 22:12:21 10° N 22:16:34 21° NE 22:17:40 19° ENE
ATLAS 3B R/B 4.2 22:17:02 10° W 22:22:48 31° NW 22:28:39 10° NNE
MOS 1-B Rocket 4.4 22:17:43 10° N 22:23:08 51° WNW 22:23:10 51° WNW
Cosmos 2297 Rocket 3.5 22:32:12 31° NE 22:32:12 31° NE 22:35:22 10° NE
Thor Agena Rocket 4.4 22:31:08 10° N 22:35:03 47° NNW 22:35:03 47° NNW
Cosmos 1980 4.2 22:32:26 10° NNW 22:36:58 56° N 22:36:58 56° N
Timation 2 Rocket 4.2 22:39:52 62° NNE 22:39:52 62° NNE 22:44:47 10° NNE
COSMOS 2428 3.8 22:35:50 10° NW 22:39:48 38° WNW 22:39:48 38° WNW
Cosmos 2219 4.1 22:46:31 43° NE 22:46:31 43° NE 22:50:15 10° NNE
SJ 16-02 4.2 22:47:38 10° NE 22:47:38 10° NE 22:47:46 10° NE
Cosmos 1464 Rocket 4.2 22:46:12 68° N 22:46:12 68° N 22:51:34 10° N
Cosmos 2237 Rocket 2.8 22:40:13 10° NNW 22:44:34 54° N 22:44:34 54° N
NOSS 0 Rocket 4.4 22:46:54 10° NNW 22:51:50 53° WNW 22:51:50 53° WNW
Nadezhda 4 Rocket 4.2 22:49:30 10° N 22:54:56 66° NNE 22:54:56 66° NNE
Cosmos 2333 Rocket 3.9 22:54:15 10° NW 22:57:19 23° WNW 22:57:19 23° WNW
Cosmos 1092 Rocket 4.2 23:11:22 10° N 23:16:44 63° NNE 23:16:44 63° NNE
Cosmos 2034 Rocket 4.3 23:19:27 62° NW 23:19:27 62° NW 23:25:02 10° N
Cosmos 2227 Rocket 2.8 23:22:00 52° NNE 23:22:00 52° NNE 23:26:17 10° NNE
Cosmos 2219 Rocket 4.4 23:24:38 10° WNW 23:26:05 14° WNW 23:26:05 14° WNW
Resurs 1-4 Rocket 4.1 23:32:46 10° NE 23:35:32 18° E 23:35:32 18° E
Cosmos 2082 4.2 23:48:47 55° NNE 23:48:47 55° NNE 23:53:08 10° NNE
Cosmos 1607 4.4 23:42:24 10° NW 23:47:26 56° NW 23:47:26 56° NW
USA 229 DEB 3.9 23:53:16 58° E 23:53:16 58° E 23:59:07 10° NE
USA 229 3.9 23:53:24 58° E 23:53:24 58° E 23:59:12 10° NE
